Atmospheric History
12/06/2017 18:36  to  12/7/2017 18:36
Change End Date:
To complete the export process:
1) Select all of the data below
2) Copy the data to the clipboard
3) Open a word processor such as Notepad
4) Paste the data into the word processor
5) Save the file

Date/Time (MST), AirTemp, RH, Dewpoint ,AvgWindSpeed, GustWindSpeed, WindDirection, PrecipType, PrecipIntensity, PrecipAccumulation, PrecipRate
12/07/2017 18:32, 29, 78, 23 ,22, 26, NW, None, None, ,  
12/07/2017 18:31, 29, 78, 23 ,22, 26, NW, None, None, ,  
12/07/2017 18:21, 30, 77, 23 ,23, 28, NW, None, None, ,  
12/07/2017 18:17, 29, 78, 23 ,22, 27, NW, None, None, ,  
12/07/2017 18:11, 29, 78, 23 ,22, 27, NW, None, None, ,  
12/07/2017 18:02, 29, 77, 23 ,22, 27, NW, None, None, ,  
12/07/2017 18:01, 30, 77, 23 ,22, 27, NW, None, None, ,  
12/07/2017 17:50, 29, 77, 23 ,22, 29, NW, None, None, ,  
12/07/2017 17:47, 30, 76, 23 ,23, 29, NW, None, None, ,  
12/07/2017 17:40, 29, 77, 23 ,23, 29, NW, None, None, ,  
12/07/2017 17:32, 29, 77, 23 ,24, 27, NW, None, None, ,  
12/07/2017 17:30, 29, 77, 23 ,24, 26, NW, None, None, ,  
12/07/2017 17:20, 29, 77, 23 ,21, 29, NW, None, None, ,  
12/07/2017 17:17, 29, 76, 23 ,22, 30, NW, None, None, ,  
12/07/2017 17:10, 30, 75, 23 ,24, 32, NW, None, None, ,  
12/07/2017 17:02, 30, 74, 23 ,27, 34, NW, None, None, ,  
12/07/2017 17:00, 30, 74, 23 ,27, 34, NW, None, None, ,  
12/07/2017 16:50, 30, 73, 23 ,25, 31, NW, None, None, ,  
12/07/2017 16:47, 30, 73, 23 ,26, 31, NW, None, None, ,  
12/07/2017 16:40, 30, 73, 22 ,26, 31, NW, None, None, ,  
12/07/2017 16:32, 30, 73, 22 ,21, 27, NW, None, None, ,  
12/07/2017 16:30, 30, 73, 22 ,22, 26, NW, None, None, ,  
12/07/2017 16:20, 28, 77, 22 ,20, 24, W, None, None, ,  
12/07/2017 16:17, 28, 78, 22 ,19, 23, W, None, None, ,  
12/07/2017 16:10, 28, 76, 21 ,18, 23, W, None, None, ,  
12/07/2017 16:02, 29, 73, 22 ,18, 24, W, None, None, ,  
12/07/2017 16:00, 30, 72, 22 ,19, 25, W, None, None, ,  
12/07/2017 15:50, 30, 71, 22 ,22, 30, NW, None, None, ,  
12/07/2017 15:47, 30, 72, 22 ,25, 29, NW, None, None, ,  
12/07/2017 15:40, 30, 72, 22 ,22, 28, NW, None, None, ,  
12/07/2017 15:32, 30, 74, 22 ,22, 25, W, None, None, ,  
12/07/2017 15:30, 29, 75, 23 ,22, 26, W, None, None, ,  
12/07/2017 15:20, 29, 76, 23 ,21, 24, W, None, None, ,  
12/07/2017 15:17, 29, 76, 23 ,20, 23, NW, None, None, ,  
12/07/2017 15:10, 29, 78, 23 ,17, 22, W, None, None, ,  
12/07/2017 15:01, 29, 78, 23 ,15, 21, W, None, None, ,  
12/07/2017 15:00, 29, 77, 23 ,16, 21, W, None, None, ,  
12/07/2017 14:50, 29, 77, 23 ,17, 21, W, None, None, ,  
12/07/2017 14:47, 29, 78, 23 ,18, 22, W, None, None, ,  
12/07/2017 14:40, 29, 77, 23 ,18, 24, W, None, None, ,  
12/07/2017 14:32, 29, 77, 23 ,19, 24, NW, None, None, ,  
12/07/2017 14:29, 29, 77, 23 ,18, 22, W, None, None, ,  
12/07/2017 14:19, 29, 77, 23 ,20, 27, NW, None, None, ,  
12/07/2017 14:17, 29, 77, 23 ,19, 27, NW, None, None, ,  
12/07/2017 14:09, 29, 77, 23 ,21, 27, NW, None, None, ,  
12/07/2017 14:02, 29, 78, 23 ,21, 28, NW, None, None, ,  
12/07/2017 13:59, 29, 77, 23 ,21, 28, NW, None, None, ,  
12/07/2017 13:49, 29, 77, 23 ,22, 29, NW, None, None, ,  
12/07/2017 13:47, 29, 78, 23 ,21, 30, NW, None, None, ,  
12/07/2017 13:39, 29, 76, 23 ,25, 30, NW, None, None, ,  
12/07/2017 13:32, 29, 77, 23 ,24, 30, NW, None, None, ,  
12/07/2017 13:29, 29, 77, 23 ,25, 30, NW, None, None, ,  
12/07/2017 13:19, 29, 77, 23 ,25, 30, NW, None, None, ,  
12/07/2017 13:17, 29, 78, 23 ,22, 30, NW, None, None, ,  
12/07/2017 13:09, 29, 77, 23 ,23, 30, NW, None, None, ,  
12/07/2017 13:02, 29, 78, 23 ,22, 27, NW, None, None, ,  
12/07/2017 12:59, 29, 77, 23 ,22, 28, NW, None, None, ,  
12/07/2017 12:49, 29, 78, 23 ,22, 29, NW, None, None, ,  
12/07/2017 12:47, 29, 77, 23 ,24, 29, NW, None, None, ,  
12/07/2017 12:39, 29, 77, 23 ,22, 27, NW, None, None, ,  
12/07/2017 12:32, 29, 78, 23 ,23, 30, NW, None, None, ,  
12/07/2017 12:29, 29, 78, 23 ,24, 30, NW, None, None, ,  
12/07/2017 12:19, 29, 78, 23 ,25, 30, NW, None, None, ,  
12/07/2017 12:17, 29, 78, 23 ,25, 30, NW, None, None, ,  
12/07/2017 12:09, 29, 78, 23 ,24, 30, NW, None, None, ,  
12/07/2017 12:02, 29, 78, 23 ,24, 31, NW, None, None, ,  
12/07/2017 11:59, 28, 79, 23 ,22, 31, NW, None, None, ,  
12/07/2017 11:49, 28, 78, 22 ,23, 32, NW, None, None, ,  
12/07/2017 11:47, 28, 78, 22 ,22, 32, NW, None, None, ,  
12/07/2017 11:39, 29, 78, 23 ,23, 30, NW, None, None, ,  
12/07/2017 11:32, 28, 78, 23 ,25, 32, NW, None, None, ,  
12/07/2017 11:29, 28, 79, 23 ,24, 34, NW, None, None, ,  
12/07/2017 11:19, 28, 78, 22 ,28, 35, NW, None, None, ,  
12/07/2017 11:17, 28, 79, 23 ,26, 34, NW, None, None, ,  
12/07/2017 11:09, 28, 78, 22 ,25, 34, NW, None, None, ,  
12/07/2017 11:02, 28, 77, 22 ,27, 34, NW, None, None, ,  
12/07/2017 10:59, 29, 77, 22 ,25, 33, NW, None, None, ,  
12/07/2017 10:48, 28, 78, 22 ,24, 32, NW, None, None, ,  
12/07/2017 10:47, 28, 78, 22 ,22, 30, NW, None, None, ,  
12/07/2017 10:38, 28, 79, 22 ,22, 29, NW, None, None, ,  
12/07/2017 10:32, 27, 79, 22 ,18, 25, NW, None, None, ,  
12/07/2017 10:28, 27, 80, 22 ,19, 25, W, None, None, ,  
12/07/2017 10:18, 26, 82, 21 ,17, 25, W, None, None, ,  
12/07/2017 10:17, 26, 81, 21 ,18, 27, W, None, None, ,  
12/07/2017 10:08, 25, 81, 20 ,21, 27, W, None, None, ,  
12/07/2017 10:02, 25, 81, 20 ,21, 25, W, None, None, ,  
12/07/2017 09:58, 25, 80, 20 ,20, 25, W, None, None, ,  
12/07/2017 09:48, 24, 80, 19 ,21, 25, W, None, None, ,  
12/07/2017 09:47, 24, 80, 19 ,19, 25, W, None, None, ,  
12/07/2017 09:38, 23, 82, 19 ,18, 21, W, None, None, ,  
12/07/2017 09:32, 22, 83, 18 ,18, 21, W, None, None, ,  
12/07/2017 09:28, 22, 83, 18 ,17, 22, W, None, None, ,  
12/07/2017 09:18, 22, 82, 17 ,18, 23, W, None, None, ,  
12/07/2017 09:17, 22, 82, 17 ,19, 23, W, None, None, ,  
12/07/2017 09:08, 21, 83, 17 ,19, 22, W, None, None, ,  
12/07/2017 09:02, 21, 83, 17 ,18, 23, W, None, None, ,  
12/07/2017 08:58, 21, 83, 17 ,19, 23, W, None, None, ,  
12/07/2017 08:48, 20, 84, 17 ,19, 22, W, None, None, ,  
12/07/2017 08:47, 20, 84, 16 ,18, 22, W, None, None, ,  
12/07/2017 08:38, 21, 83, 17 ,19, 22, W, None, None, ,  
12/07/2017 08:32, 21, 84, 17 ,19, 23, W, None, None, ,  
12/07/2017 08:28, 20, 84, 17 ,19, 23, W, None, None, ,  
12/07/2017 08:18, 20, 84, 17 ,19, 22, W, None, None, ,  
12/07/2017 08:17, 20, 84, 17 ,19, 21, W, None, None, ,  
12/07/2017 08:08, 22, 82, 17 ,17, 23, W, None, None, ,  
12/07/2017 08:02, 21, 82, 17 ,19, 23, W, None, None, ,  
12/07/2017 07:58, 21, 82, 17 ,18, 23, W, None, None, ,  
12/07/2017 07:48, 21, 82, 17 ,20, 24, W, None, None, ,  
12/07/2017 07:47, 22, 82, 17 ,20, 24, W, None, None, ,  
12/07/2017 07:38, 20, 85, 17 ,19, 23, W, None, None, ,  
12/07/2017 07:32, 20, 85, 16 ,19, 22, W, None, None, ,  
12/07/2017 07:28, 19, 85, 16 ,20, 21, W, None, None, ,  
12/07/2017 07:18, 19, 85, 15 ,19, 22, W, None, None, ,  
12/07/2017 07:17, 19, 85, 15 ,19, 22, W, None, None, ,  
12/07/2017 07:07, 19, 86, 15 ,17, 21, W, None, None, ,  
12/07/2017 07:02, 19, 86, 16 ,17, 21, W, None, None, ,  
12/07/2017 06:57, 19, 86, 16 ,16, 18, W, None, None, ,  
12/07/2017 06:47, 20, 86, 16 ,16, 19, W, None, None, ,  
12/07/2017 06:47, 20, 86, 16 ,16, 19, W, None, None, ,  
12/07/2017 06:37, 20, 84, 16 ,16, 19, W, None, None, ,  
12/07/2017 06:32, 21, 83, 17 ,15, 20, W, None, None, ,  
12/07/2017 06:27, 21, 82, 17 ,17, 21, SW, None, None, ,  
12/07/2017 06:17, 21, 84, 17 ,16, 21, SW, None, None, ,  
12/07/2017 06:17, 21, 84, 17 ,16, 21, SW, None, None, ,  
12/07/2017 06:07, 21, 84, 17 ,17, 22, SW, None, None, ,  
12/07/2017 06:02, 21, 84, 17 ,15, 19, SW, None, None, ,  
12/07/2017 05:57, 21, 84, 17 ,16, 19, SW, None, None, ,  
12/07/2017 05:48, 20, 86, 17 ,12, 14, SW, None, None, ,  
12/07/2017 05:47, 20, 86, 17 ,11, 14, SW, None, None, ,  
12/07/2017 05:37, 18, 88, 15 ,9, 17, SW, None, None, ,  
12/07/2017 05:32, 19, 86, 16 ,12, 19, SW, None, None, ,  
12/07/2017 05:27, 20, 86, 16 ,16, 19, SW, None, None, ,  
12/07/2017 05:17, 20, 86, 16 ,16, 19, SW, None, None, ,  
12/07/2017 05:17, 20, 86, 16 ,16, 19, SW, None, None, ,  
12/07/2017 05:07, 21, 85, 17 ,18, 21, SW, None, None, ,  
12/07/2017 05:02, 20, 86, 17 ,17, 19, SW, None, None, ,  
12/07/2017 04:57, 20, 90, 17 ,16, 18, SW, None, None, ,  
12/07/2017 04:47, 16, 92, 15 ,15, 19, SW, None, None, ,  
12/07/2017 04:47, 16, 92, 15 ,15, 19, SW, None, None, ,  
12/07/2017 04:37, 16, 92, 15 ,16, 19, SW, None, None, ,  
12/07/2017 04:32, 17, 92, 15 ,17, 19, SW, None, None, ,  
12/07/2017 04:27, 17, 91, 15 ,17, 20, SW, None, None, ,  
12/07/2017 04:17, 18, 91, 16 ,18, 20, SW, None, None, ,  
12/07/2017 04:17, 18, 91, 16 ,18, 20, SW, None, None, ,  
12/07/2017 04:06, 17, 92, 16 ,17, 20, SW, None, None, ,  
12/07/2017 04:02, 18, 91, 15 ,16, 20, SW, None, None, ,  
12/07/2017 03:56, 18, 90, 15 ,17, 19, SW, None, None, ,  
12/07/2017 03:47, 19, 88, 16 ,16, 19, SW, None, None, ,  
12/07/2017 03:46, 19, 88, 16 ,16, 19, SW, None, None, ,  
12/07/2017 03:36, 20, 88, 17 ,17, 19, SW, None, None, ,  
12/07/2017 03:32, 20, 87, 17 ,17, 21, SW, None, None, ,  
12/07/2017 03:26, 20, 87, 17 ,18, 21, SW, None, None, ,  
12/07/2017 03:17, 19, 89, 17 ,17, 20, SW, None, None, ,  
12/07/2017 03:16, 19, 90, 17 ,16, 20, SW, None, None, ,  
12/07/2017 03:06, 19, 90, 16 ,16, 19, SW, None, None, ,  
12/07/2017 03:02, 19, 90, 17 ,17, 19, W, None, None, ,  
12/07/2017 02:56, 19, 91, 17 ,17, 19, W, None, None, ,  
12/07/2017 02:47, 18, 91, 16 ,14, 20, W, None, None, ,  
12/07/2017 02:46, 18, 91, 16 ,14, 20, W, None, None, ,  
12/07/2017 02:36, 18, 92, 16 ,17, 19, SW, None, None, ,  
12/07/2017 02:32, 18, 93, 16 ,16, 18, SW, None, None, ,  
12/07/2017 02:26, 17, 93, 15 ,15, 19, W, None, None, ,  
12/07/2017 02:17, 17, 93, 15 ,16, 18, W, None, None, ,  
12/07/2017 02:16, 17, 93, 15 ,16, 18, W, None, None, ,  
12/07/2017 02:06, 17, 94, 15 ,16, 17, W, None, None, ,  
12/07/2017 02:02, 16, 93, 15 ,14, 17, SW, None, None, ,  
12/07/2017 01:56, 16, 94, 15 ,15, 17, SW, None, None, ,  
12/07/2017 01:47, 15, 94, 14 ,14, 16, SW, None, None, ,  
12/07/2017 01:46, 15, 94, 14 ,15, 16, SW, None, None, ,  
12/07/2017 01:36, 15, 93, 13 ,14, 17, W, None, None, ,  
12/07/2017 01:33, 15, 93, 13 ,15, 17, W, None, None, ,  
12/07/2017 01:26, 15, 94, 14 ,16, 18, W, None, None, ,  
12/07/2017 01:17, 14, 94, 13 ,15, 17, SW, None, None, ,  
12/07/2017 01:16, 14, 94, 13 ,14, 17, SW, None, None, ,  
12/07/2017 01:06, 14, 94, 12 ,16, 19, W, None, None, ,  
12/07/2017 01:02, 14, 94, 13 ,17, 19, W, None, None, ,  
12/07/2017 00:56, 14, 95, 13 ,16, 19, W, None, None, ,  
12/07/2017 00:47, 14, 94, 12 ,14, 17, SW, None, None, ,  
12/07/2017 00:46, 14, 94, 13 ,14, 17, SW, None, None, ,  
12/07/2017 00:36, 11, 92, 10 ,11, 13, W, None, None, ,  
12/07/2017 00:35, 11, 93, 10 ,11, 12, W, None, None, ,  
12/07/2017 00:26, 12, 93, 10 ,9, 12, W, None, None, ,  
12/07/2017 00:17, 12, 94, 11 ,12, 14, W, None, None, ,  
12/07/2017 00:16, 12, 95, 11 ,12, 14, W, None, None, ,  
12/07/2017 00:05, 11, 92, 10 ,13, 15, SW, None, None, ,  
12/07/2017 00:02, 11, 92, 10 ,14, 15, SW, None, None, ,  
12/06/2017 23:55, 11, 92, 10 ,13, 14, SW, None, None, ,  
12/06/2017 23:47, 13, 93, 11 ,13, 14, SW, None, None, ,  
12/06/2017 23:45, 13, 94, 11 ,13, 15, SW, None, None, ,  
12/06/2017 23:35, 12, 94, 11 ,14, 15, SW, None, None, ,  
12/06/2017 23:32, 12, 93, 10 ,13, 14, SW, None, None, ,  
12/06/2017 23:25, 11, 92, 10 ,12, 13, SW, None, None, ,  
12/06/2017 23:17, 13, 93, 11 ,11, 14, SW, None, None, ,  
12/06/2017 23:15, 13, 93, 11 ,12, 14, W, None, None, ,  
12/06/2017 23:05, 12, 94, 11 ,12, 14, W, None, None, ,  
12/06/2017 23:02, 12, 93, 10 ,11, 14, W, None, None, ,  
12/06/2017 22:55, 11, 92, 10 ,13, 16, W, None, None, ,  
12/06/2017 22:47, 12, 93, 10 ,16, 16, SW, None, None, ,  
12/06/2017 22:45, 12, 93, 10 ,15, 16, SW, None, None, ,  
12/06/2017 22:35, 12, 95, 11 ,13, 15, SW, None, None, ,  
12/06/2017 22:32, 11, 96, 10 ,12, 13, SW, None, None, ,  
12/06/2017 22:25, 10, 89, 8 ,4, 14, NW, None, None, ,  
12/06/2017 22:17, 10, 91, 8 ,12, 13, SW, None, None, ,  
12/06/2017 22:15, 10, 91, 8 ,12, 12, SW, None, None, ,  
12/06/2017 22:05, 11, 91, 9 ,12, 14, SW, None, None, ,  
12/06/2017 22:02, 11, 92, 9 ,12, 14, SW, None, None, ,  
12/06/2017 21:55, 11, 91, 9 ,13, 14, SW, None, None, ,  
12/06/2017 21:47, 11, 91, 9 ,12, 13, SW, None, None, ,  
12/06/2017 21:45, 11, 89, 8 ,10, 12, SW, None, None, ,  
12/06/2017 21:35, 13, 89, 10 ,9, 13, SW, None, None, ,  
12/06/2017 21:32, 13, 89, 10 ,11, 13, W, None, None, ,  
12/06/2017 21:25, 14, 89, 11 ,12, 14, W, None, None, ,  
12/06/2017 21:17, 14, 89, 12 ,13, 14, W, None, None, ,  
12/06/2017 21:15, 14, 90, 12 ,12, 14, W, None, None, ,  
12/06/2017 21:05, 14, 90, 12 ,12, 15, W, None, None, ,  
12/06/2017 21:02, 14, 90, 12 ,12, 15, W, None, None, ,  
12/06/2017 20:54, 14, 90, 12 ,11, 17, W, None, None, ,  
12/06/2017 20:47, 14, 90, 11 ,12, 16, W, None, None, ,  
12/06/2017 20:44, 14, 90, 11 ,12, 16, W, None, None, ,  
12/06/2017 20:34, 14, 91, 11 ,12, 14, W, None, None, ,  
12/06/2017 20:32, 13, 91, 11 ,12, 13, W, None, None, ,  
12/06/2017 20:24, 13, 90, 11 ,10, 12, W, None, None, ,  
12/06/2017 20:17, 14, 90, 11 ,11, 12, W, None, None, ,  
12/06/2017 20:14, 13, 90, 11 ,12, 12, W, None, None, ,  
12/06/2017 20:04, 14, 91, 11 ,9, 12, W, None, None, ,  
12/06/2017 20:02, 14, 91, 11 ,9, 12, W, None, None, ,  
12/06/2017 19:54, 13, 91, 11 ,9, 14, W, None, None, ,  
12/06/2017 19:47, 13, 91, 11 ,12, 14, W, None, None, ,  
12/06/2017 19:44, 13, 90, 11 ,12, 14, W, None, None, ,  
12/06/2017 19:34, 13, 91, 11 ,12, 16, W, None, None, ,  
12/06/2017 19:32, 13, 91, 11 ,13, 16, W, None, None, ,  
12/06/2017 19:24, 14, 91, 12 ,12, 16, W, None, None, ,  
12/06/2017 19:17, 14, 93, 13 ,13, 16, W, None, None, ,  
12/06/2017 19:14, 14, 93, 13 ,12, 16, W, None, None, ,  
12/06/2017 19:04, 14, 94, 12 ,12, 14, W, None, None, ,  
12/06/2017 19:02, 14, 93, 12 ,12, 14, W, None, None, ,  
12/06/2017 18:54, 13, 93, 11 ,10, 16, W, None, None, ,  
12/06/2017 18:47, 13, 93, 11 ,14, 16, W, None, None, ,  
12/06/2017 18:44, 13, 93, 11 ,12, 16, W, None, None, ,  
Change End Date:

Copyright © 1998-2015 Vaisala, Inc.
All Rights Reserved
Send comments about the data to:
SCAN Web ® is a registered trademark of Vaisala, Inc.
SCAN Web Version 6.0